Printer-friendly version

IAU Minor Planet Center

Minor Planet Center

MPEC 2004-K25 : 2004 KD1

The following Minor Planet Electronic Circular may be linked-to from your own Web pages, but must not otherwise be redistributed electronically.


Read MPEC 2004-K24 Read MPEC 2004-K26


M.P.E.C. 2004-K25                                Issued 2004 May 20, 14:07 UT

     The Minor Planet Electronic Circulars contain information on unusual
         minor planets and routine data on comets.  They are published
   on behalf of Commission 20 of the International Astronomical Union by the
          Minor Planet Center, Smithsonian Astrophysical Observatory,
                          Cambridge, MA 02138, U.S.A.

         Supported in part by the Steven and Michele Kirsch Foundation
             Prepared using the Tamkin Foundation Computer Network

                              MPC@CFA.HARVARD.EDU
          URL http://cfa-www.harvard.edu/iau/mpc.html  ISSN 1523-6714

                                   2004 KD1

Observations:
     K04K01D* C2004 05 18.44209 22 24 30.65 -09 10 19.4          19.0 R EK025703
     K04K01D  C2004 05 18.45118 22 24 32.35 -09 09 59.3          19.4 R EK025703
     K04K01D  C2004 05 18.46025 22 24 34.14 -09 09 39.2          18.0 R EK025703
     K04K01D  C2004 05 18.46936 22 24 35.88 -09 09 20.0          18.1 R EK025703
     K04K01D %C2004 05 19.39424 22 27 36.68 -08 35 25.8          19.5 R EK025807
     K04K01D %C2004 05 19.39517 22 27 36.84 -08 35 23.7          19.2 R EK025807
     K04K01D %C2004 05 19.39611 22 27 37.07 -08 35 21.7          19.4 R EK025807
     K04K01D %C2004 05 19.39705 22 27 37.21 -08 35 19.7          19.0 R EK025807
     K04K01D %C2004 05 19.39799 22 27 37.41 -08 35 17.4          19.6 R EK025807
     K04K01D %C2004 05 19.40177 22 27 38.12 -08 35 09.5          19.4 R EK025807
     K04K01D %C2004 05 19.40358 22 27 38.47 -08 35 05.3          18.8 R EK025807
     K04K01D  C2004 05 19.82622 22 29 00.46 -08 19 40.7          19.3 R EK025E12
     K04K01D  C2004 05 20.07851 22 29 49.69 -08 10 41.8          19.3 R EK025599
     K04K01D  C2004 05 20.08140 22 29 50.28 -08 10 35.8          18.7 R EK025599
     K04K01D  C2004 05 20.08432 22 29 50.84 -08 10 29.9          19.2 R EK025599
     K04K01D  C2004 05 20.08721 22 29 51.48 -08 10 23.1          19.1 R EK025599
     K04K01D  C2004 05 20.41178 22 30 54.25 -07 58 29.7          19.4 R EK025854
     K04K01D  C2004 05 20.41843 22 30 55.57 -07 58 16.0          19.3 R EK025854
     K04K01D  C2004 05 20.42502 22 30 56.84 -07 58 01.3          19.2 R EK025854
     K04K01D  C2004 05 20.43801 22 30 59.27 -07 57 32.9          19.2 R EK025926
     K04K01D  C2004 05 20.43981 22 30 59.63 -07 57 29.7          19.5 R EK025926
     K04K01D  C2004 05 20.44154 22 30 59.98 -07 57 25.4          19.0 R EK025926

Observer details:
599 Campo Imperatore-CINEOS.  Observers A. Boattini, R. Leoni, A. Di Paola.
    0.60-m f/3 Schmidt + CCD.
703 Catalina Sky Survey.  Observers S. Larson, E. Beshore, E. Christensen,
    R. Hill, S. Howard, D. McLean.
807 Cerro Tololo.  Observer W. Ryan.  1.0-m f/10.0 reflector + CCD.
854 Sabino Canyon Observatory, Tucson.  Observer J. E. McGaha.  0.356-m f/10.0
    Schmidt-Cassegrain + CCD.
926 Tenagra II Observatory.  Observers P. R. Holvorcem, M. Schwartz.  0.81-m
    f/7 Ritchey-Chretien + CCD.
E12 Siding Spring Survey.  Observers R. H. McNaught, S. Larson, E. Beshore,
    E. Christensen, R. Hill, D. McLean.  0.5-m Uppsala Schmidt + CCD.

Orbital elements:
2004 KD1
Epoch 2004 May 15.0 TT = JDT 2453140.5                  MPC
M 355.36452              (2000.0)            P               Q
n   0.40588246     Peri.    9.79893     +0.20707742     +0.96186600
a   1.8066299      Node   272.31282     -0.90926806     +0.12181519
e   0.3578544      Incl.   10.30238     -0.36104092     +0.24489765
P   2.43           H   17.8           G   0.15
From 22 observations 2004 May 18-20.

Ephemeris:
2004 KD1                 a,e,i = 1.81, 0.36, 10                  q = 1.1601
Date    TT    R. A. (2000) Decl.     Delta      r     Elong.  Phase     V
2004 05 15    22 13.05   -11 14.9    0.709    1.165    83.3    59.5    19.5
2004 05 25    22 45.36   -05 10.7    0.697    1.160    83.3    60.1    19.5
2004 06 04    23 14.92   +00 51.2    0.690    1.163    83.7    60.1    19.5
2004 06 14    23 41.98   +06 38.9    0.688    1.174    84.8    59.5    19.5
2004 06 24    00 06.59   +12 03.5    0.687    1.191    86.5    58.4    19.5
2004 07 04    00 28.73   +17 00.0    0.686    1.216    88.9    56.7    19.5
2004 07 14    00 48.21   +21 26.3    0.684    1.246    92.2    54.6    19.4
2004 07 24    01 04.59   +25 21.0    0.678    1.282    96.3    52.0    19.4
2004 08 03    01 17.29   +28 43.0    0.670    1.322   101.3    48.8    19.4
2004 08 13    01 25.61   +31 30.9    0.660    1.364   107.4    45.1    19.3
2004 08 23    01 28.69   +33 39.9    0.648    1.410   114.5    40.7    19.2
2004 09 02    01 26.05   +35 02.4    0.639    1.457   122.7    35.6    19.1
2004 09 12    01 17.81   +35 28.5    0.633    1.505   131.9    29.9    19.0
2004 09 22    01 05.22   +34 48.7    0.638    1.554   141.5    23.7    18.9
2004 10 02    00 50.83   +33 03.0    0.655    1.603   150.3    18.0    18.8
2004 10 12    00 37.51   +30 25.6    0.690    1.652   155.8    14.4    18.9
2004 10 22    00 27.57   +27 22.1    0.745    1.700   155.2    14.2    19.1
2004 11 01    00 22.12   +24 21.1    0.820    1.748   149.3    16.9    19.5
2004 11 11    00 21.15   +21 42.3    0.913    1.794   141.1    20.3    19.9
2004 11 21    00 24.14   +19 36.0    1.023    1.840   132.5    23.3    20.3
2004 12 01    00 30.39   +18 04.4    1.146    1.884   124.0    25.7    20.6
2004 12 11    00 39.20   +17 04.6    1.281    1.927   115.9    27.4    21.0
2004 12 21    00 50.03   +16 32.4    1.424    1.969   108.3    28.3    21.3
2004 12 31    01 02.44   +16 22.7    1.574    2.008   101.0    28.7    21.6
2005 01 10    01 16.06   +16 30.8    1.728    2.047    94.0    28.6    21.8
2005 01 20    01 30.69   +16 52.7    1.884    2.084    87.3    28.1    22.0

Timothy B. Spahr             (C) Copyright 2004 MPC           M.P.E.C. 2004-K25

Read MPEC 2004-K24 Read MPEC 2004-K26


Our Web policy. Index to the CBAT/MPC/ICQ pages.


Valid HTML 4.01!